CW3077 Weather Reports


time (UTC)temp
C
wind
direction
speed
KPH
gust
KPH
rain 1hr
cm
rain 24hr
cm
rain mn
cm
humidity
%
barometer
mb
20260506180015 22 0 8.0 16.1 0.00 0.00 0.00 74 1013.0
20260506175536 21 23 9.7 16.1 0.00 0.00 0.00 74 1012.8
20260506175015 21 23 8.0 19.3 0.00 0.00 0.00 73 1012.6
20260506174515 21 23 8.0 17.7 0.00 0.00 0.00 74 1012.7
20260506174015 21 23 8.0 16.1 0.00 0.00 0.00 76 1012.6
20260506173515 21 68 8.0 19.3 0.00 0.00 0.00 77 1012.6
20260506173015 20 90 9.7 17.7 0.00 0.00 0.00 76 1012.5
20260506172515 20 90 8.0 17.7 0.00 0.00 0.00 79 1012.6
20260506172015 20 90 8.0 16.1 0.00 0.00 0.00 79 1012.7
20260506171515 19 45 8.0 16.1 0.00 0.00 0.00 78 1012.7
20260506171016 20 90 8.0 19.3 0.00 0.00 0.00 78 1012.7
20260506170515 19 90 9.7 16.1 0.00 0.00 0.00 78 1012.6
20260506170015 19 23 11.3 19.3 0.00 0.00 0.00 80 1012.6
20260506165515 19 90 9.7 19.3 0.00 0.00 0.00 81 1012.6
20260506165015 18 68 11.3 19.3 0.00 0.00 0.00 83 1012.8
20260506164515 18 90 9.7 20.9 0.00 0.00 0.00 85 1012.9
20260506164016 17 45 9.7 19.3 0.00 0.00 0.00 86 1013.3
20260506163515 17 23 11.3 19.3 0.00 0.00 0.00 88 1013.1
20260506163016 16 45 11.3 19.3 0.00 0.00 0.00 86 1013.2
20260506162536 16 23 11.3 20.9 0.00 0.00 0.00 86 1013.4
20260506162015 15 45 14.5 30.6 0.00 0.00 0.00 88 1012.9
20260506161515 16 45 11.3 20.9 0.00 0.00 0.00 88 1013.4
20260506161015 16 23 16.1 27.4 0.00 0.00 0.00 88 1013.9
20260506160515 16 23 11.3 27.4 0.00 0.00 0.00 88 1014.2
20260506160036 16 23 11.3 24.1 0.00 0.00 0.00 88 1014.7
20260506155515 16 23 11.3 19.3 0.00 0.00 0.00 88 1014.4
20260506155035 16 23 16.1 30.6 0.00 0.00 0.00 88 1014.4
20260506154515 16 0 16.1 29.0 0.00 0.00 0.00 88 1014.7
20260506154015 16 23 12.9 33.8 0.00 0.00 0.00 88 1014.1
20260506153515 17 23 12.9 25.7 0.00 0.00 0.00 88 1014.6
20260506153055 17 23 12.9 27.4 0.00 0.00 0.00 89 1014.1
20260506152515 17 0 12.9 29.0 0.00 0.00 0.00 89 1014.0
20260506152015 17 23 11.3 24.1 0.00 0.00 0.00 88 1013.7
20260506151515 17 0 11.3 27.4 0.00 0.00 0.00 89 1013.4
20260506151015 17 23 11.3 24.1 0.00 0.00 0.00 88 1013.0
20260506150515 18 0 11.3 22.5 0.00 0.00 0.00 88 1012.9
20260506150015 18 23 12.9 27.4 0.00 0.00 0.00 88 1012.9
20260506145515 18 23 17.7 35.4 0.00 0.00 0.00 88 1012.6
20260506145015 19 23 14.5 35.4 0.00 0.00 0.00 88 1012.5
20260506144515 19 23 12.9 22.5 0.00 0.00 0.00 88 1012.0
20260506144015 20 23 14.5 30.6 0.00 0.00 0.00 86 1011.9
20260506143515 20 45 12.9 25.7 0.00 0.00 0.00 86 1012.2
20260506143015 21 23 11.3 27.4 0.00 0.00 0.00 86 1012.1
20260506142515 21 23 14.5 25.7 0.00 0.00 0.00 85 1011.5
20260506142015 23 23 9.7 20.9 0.00 0.00 0.00 85 1011.5
20260506141515 24 0.0 6.4 0.00 0.00 0.00 86 1011.2
20260506141015 24 0.0 1.6 0.00 0.00 0.00 86 1011.3
20260506140515 24 0.0 1.6 0.00 0.00 0.00 85 1011.4
20260506140015 23 0.0 0.0 0.00 0.00 0.00 86 1011.5
20260506135515 23 0.0 1.6 0.00 0.00 0.00 85 1011.7
20260506135015 23 0.0 3.2 0.00 0.00 0.00 85 1011.4
20260506134535 23 135 3.2 6.4 0.00 0.00 0.00 85 1011.0
20260506134015 23 0.0 4.8 0.00 0.00 0.00 84 1010.9
20260506133536 23 0.0 0.0 0.00 0.00 0.00 84 1011.1
20260506133015 23 135 1.6 4.8 0.00 0.00 0.00 82 1011.0
20260506132515 23 135 1.6 6.4 0.00 0.00 0.00 81 1011.1
20260506132017 23 135 1.6 6.4 0.00 0.00 0.00 80 1011.0
20260506131515 23 135 3.2 6.4 0.00 0.00 0.00 78 1010.7
20260506131037 23 135 3.2 9.7 0.00 0.00 0.00 76 1010.5
20260506130517 23 135 4.8 11.3 0.00 0.00 0.00 76 1010.5
20260506130017 23 158 4.8 9.7 0.00 0.00 0.00 75 1010.7
20260506125517 23 135 3.2 14.5 0.00 0.00 0.00 74 1010.5
20260506125017 23 135 3.2 8.0 0.00 0.00 0.00 74 1010.5
20260506124537 22 180 1.6 6.4 0.00 0.00 0.00 74 1010.3
20260506124017 22 180 1.6 4.8 0.00 0.00 0.00 75 1010.4
20260506123517 22 180 1.6 4.8 0.00 0.00 0.00 75 1010.4
20260506123017 22 180 1.6 9.7 0.00 0.00 0.00 75 1010.2
20260506122517 22 180 1.6 6.4 0.00 0.00 0.00 76 1010.3
20260506122037 22 0.0 0.0 0.00 0.00 0.00 76 1010.3
20260506121517 22 0.0 0.0 0.00 0.00 0.00 76 1010.4
20260506121017 22 0.0 0.0 0.00 0.00 0.00 76 1010.3
20260506120517 22 0.0 0.0 0.00 0.00 0.00 77 1010.3
20260506120017 22 0.0 0.0 0.00 0.00 0.00 77 1010.3
20260506115517 22 0.0 0.0 0.00 0.00 0.00 78 1010.2
20260506115037 22 0.0 1.6 0.00 0.00 0.00 78 1010.2
20260506114516 22 0.0 1.6 0.00 0.00 0.00 78 1010.1
20260506114037 22 0.0 1.6 0.00 0.00 0.00 79 1010.2
20260506113517 22 0.0 1.6 0.00 0.00 0.00 79 1010.1
20260506113017 22 0.0 3.2 0.00 0.00 0.00 79 1010.2
20260506112537 22 0.0 1.6 0.00 0.00 0.00 79 1010.3
20260506112017 22 203 1.6 3.2 0.00 0.00 0.00 80 1010.3
20260506111516 22 0.0 3.2 0.00 0.00 0.00 80 1010.3
20260506111017 23 203 1.6 6.4 0.00 0.00 0.00 81 1010.2
20260506110516 23 180 1.6 4.8 0.00 0.00 0.00 81 1010.3
20260506110016 23 180 1.6 4.8 0.00 0.00 0.00 82 1010.3
20260506105537 23 180 1.6 4.8 0.00 0.00 0.00 82 1010.3
20260506105017 23 0.0 3.2 0.00 0.00 0.00 83 1010.3
20260506104516 23 180 1.6 4.8 0.00 0.00 0.00 83 1010.2
20260506104037 23 180 1.6 4.8 0.00 0.00 0.00 83 1010.3
20260506103517 23 180 1.6 6.4 0.00 0.00 0.00 84 1010.2
20260506103017 23 180 1.6 6.4 0.00 0.00 0.00 84 1010.1
20260506102517 23 180 3.2 8.0 0.00 0.00 0.00 85 1010.0
20260506102017 23 180 1.6 9.7 0.00 0.00 0.00 85 1010.0
20260506101517 23 158 1.6 6.4 0.00 0.00 0.00 85 1010.0
20260506101016 23 180 1.6 9.7 0.00 0.00 0.00 85 1010.0
20260506100516 23 180 3.2 6.4 0.00 0.00 0.00 85 1009.8
20260506100017 23 203 1.6 8.0 0.00 0.00 0.00 86 1009.8
20260506095517 23 203 1.6 9.7 0.00 0.00 0.00 86 1010.0
20260506095037 23 180 3.2 9.7 0.00 0.00 0.00 86 1009.9
20260506094517 23 158 3.2 12.9 0.00 0.00 0.00 86 1009.8
20260506094017 23 158 1.6 11.3 0.00 0.00 0.00 86 1009.7
20260506093516 23 158 1.6 11.3 0.00 0.00 0.00 86 1009.7
20260506093016 23 158 3.2 11.3 0.00 0.00 0.00 86 1009.6
20260506092557 23 158 1.6 11.3 0.00 0.00 0.00 86 1009.6
20260506092016 23 158 1.6 9.7 0.00 0.00 0.00 86 1009.5
20260506091516 23 158 3.2 9.7 0.00 0.00 0.00 86 1009.4
20260506091016 23 158 3.2 9.7 0.00 0.00 0.00 86 1009.5
20260506090517 23 0.0 4.8 0.00 0.00 0.00 86 1009.5
20260506090017 23 180 1.6 6.4 0.00 0.00 0.00 86 1009.4
20260506085516 23 180 1.6 9.7 0.00 0.00 0.00 86 1009.4
20260506085016 23 180 1.6 4.8 0.00 0.00 0.00 86 1009.4
20260506084516 23 180 1.6 8.0 0.00 0.00 0.00 86 1009.5
20260506084016 23 203 1.6 11.3 0.00 0.00 0.00 86 1009.5
20260506083516 23 180 1.6 6.4 0.00 0.00 0.00 86 1009.4
20260506083017 23 180 1.6 6.4 0.00 0.00 0.00 86 1009.4
20260506082537 23 180 1.6 6.4 0.00 0.00 0.00 86 1009.5
20260506082017 23 180 1.6 6.4 0.00 0.00 0.00 86 1009.5
20260506081516 23 180 1.6 9.7 0.00 0.00 0.00 86 1009.4
20260506081017 23 180 1.6 6.4 0.00 0.00 0.00 86 1009.2
20260506080516 23 158 4.8 14.5 0.00 0.00 0.00 86 1009.1
20260506073516 23 203 8.0 22.5 0.00 0.00 0.00 86 1009.3
20260506073016 23 203 8.0 19.3 0.00 0.00 0.00 86 1009.4
20260506072517 23 225 6.4 20.9 0.00 0.00 0.00 86 1009.4
20260506072016 23 203 8.0 17.7 0.00 0.00 0.00 86 1009.5
20260506071516 23 180 9.7 20.9 0.00 0.00 0.00 86 1009.6
20260506071016 23 180 11.3 25.7 0.00 0.00 0.00 86 1009.4
20260506070517 23 203 8.0 16.1 0.00 0.00 0.00 86 1009.5
20260506062516 23 180 8.0 17.7 0.00 0.00 0.00 86 1009.3
20260506062016 23 180 8.0 17.7 0.00 0.00 0.00 86 1009.3
20260506061516 23 180 8.0 17.7 0.00 0.00 0.00 86 1009.0
20260506061016 23 203 8.0 25.7 0.00 0.00 0.00 86 1009.0
20260506060516 23 180 8.0 20.9 0.00 0.00 0.00 86 1008.9
20260506051016 23 158 8.0 19.3 0.00 0.00 0.00 86 1009.3
20260506050516 23 158 8.0 20.9 0.00 0.00 0.00 86 1009.3
20260506045017 23 180 4.8 14.5 0.00 0.00 0.00 86 1009.2
20260506044517 23 180 6.4 17.7 0.00 0.00 0.00 86 1009.2
20260506044016 23 158 6.4 16.1 0.00 0.00 0.00 86 1009.2
20260506043517 24 180 3.2 12.9 0.00 0.00 0.00 86 1009.2
20260506043017 24 158 9.7 20.9 0.00 0.00 0.00 86 1009.0
20260506042517 24 203 6.4 20.9 0.00 0.00 0.00 86 1008.9
20260506042037 24 203 4.8 14.5 0.00 0.00 0.00 86 1008.9
20260506041637 24 180 6.4 22.5 0.00 0.00 0.00 86 1009.0
20260506041037 24 158 6.4 16.1 0.00 0.00 0.00 86 1009.1
20260506040517 24 203 4.8 19.3 0.00 0.00 0.00 86 1009.0
20260506040017 24 180 4.8 19.3 0.00 0.00 0.00 86 1008.8
20260506035537 24 180 3.2 9.7 0.00 0.00 0.00 86 1008.9
20260506035016 24 158 3.2 14.5 0.00 0.00 0.00 86 1008.8
20260506034537 24 158 3.2 12.9 0.00 0.00 0.00 86 1008.7
20260506034017 24 158 3.2 17.7 0.00 0.00 0.00 86 1008.5
20260506033517 24 158 6.4 16.1 0.00 0.00 0.00 85 1008.6
20260506033016 24 158 4.8 12.9 0.00 0.00 0.00 85 1008.6
20260506032516 25 158 6.4 16.1 0.00 0.00 0.00 85 1008.8
20260506032017 25 158 6.4 17.7 0.00 0.00 0.00 84 1008.6
20260506031516 25 158 6.4 16.1 0.00 0.00 0.00 84 1008.5
20260506031016 25 158 6.4 16.1 0.00 0.00 0.00 84 1008.6
20260506030516 25 180 8.0 17.7 0.00 0.00 0.00 83 1008.2
20260506030017 25 158 4.8 14.5 0.00 0.00 0.00 83 1008.3
20260506025517 25 158 6.4 17.7 0.00 0.00 0.00 83 1008.3
20260506025017 25 158 6.4 17.7 0.00 0.00 0.00 82 1008.1
20260506024517 25 180 6.4 16.1 0.00 0.00 0.00 82 1008.3
20260506024016 25 158 3.2 12.9 0.00 0.00 0.00 82 1008.1
20260506023516 25 158 3.2 11.3 0.00 0.00 0.00 82 1008.0
20260506023016 25 180 4.8 14.5 0.00 0.00 0.00 81 1007.9
20260506022516 25 158 4.8 17.7 0.00 0.00 0.00 81 1007.8
20260506022057 25 158 3.2 14.5 0.00 0.00 0.00 81 1007.7
20260506021517 25 158 4.8 14.5 0.00 0.00 0.00 81 1007.5
20260506021017 25 135 1.6 9.7 0.00 0.00 0.00 81 1007.5
20260506020516 25 135 3.2 6.4 0.00 0.00 0.00 80 1007.5
20260506020016 25 135 3.2 11.3 0.00 0.00 0.00 80 1007.4
20260506015537 25 135 4.8 12.9 0.00 0.00 0.00 80 1007.2
20260506015037 26 158 3.2 11.3 0.00 0.00 0.00 79 1007.1
20260506014536 26 158 4.8 11.3 0.00 0.00 0.00 79 1007.1
20260506014016 26 180 4.8 12.9 0.00 0.00 0.00 79 1007.3
20260506013516 26 158 4.8 12.9 0.00 0.00 0.00 79 1007.1
20260506013016 26 158 4.8 12.9 0.00 0.00 0.00 79 1007.1
20260506012516 26 158 4.8 16.1 0.00 0.00 0.00 78 1007.0
20260506012016 26 158 3.2 11.3 0.00 0.00 0.00 78 1007.0
20260506011516 26 158 4.8 12.9 0.00 0.00 0.00 78 1007.0
20260506011017 26 158 4.8 16.1 0.00 0.00 0.00 78 1006.9
20260506010557 26 158 3.2 9.7 0.00 0.00 0.00 77 1007.0
20260506010017 26 135 3.2 14.5 0.00 0.00 0.00 77 1007.1
20260506005516 26 158 3.2 9.7 0.00 0.00 0.00 76 1007.1
20260506005016 26 158 4.8 11.3 0.00 0.00 0.00 76 1007.0
20260506004516 27 180 3.2 11.3 0.00 0.00 0.00 75 1007.2
20260506004016 27 180 3.2 11.3 0.00 0.00 0.00 74 1007.1
20260506003516 27 180 3.2 6.4 0.00 0.00 0.00 75 1007.1
20260506003016 27 158 3.2 11.3 0.00 0.00 0.00 74 1007.0
20260506002516 27 158 3.2 11.3 0.00 0.00 0.00 74 1007.1
20260506002016 27 158 3.2 14.5 0.00 0.00 0.00 74 1007.1
20260506001516 27 203 3.2 12.9 0.00 0.00 0.00 74 1007.2
20260506001036 27 180 3.2 11.3 0.00 0.00 0.00 74 1007.0
20260506000516 27 180 6.4 14.5 0.00 0.00 0.00 73 1007.2
20260506000016 27 158 4.8 11.3 0.00 0.00 0.00 73 1007.3
20260505235516 27 180 3.2 17.7 0.00 0.00 0.00 73 1007.3
20260505235016 27 203 4.8 14.5 0.00 0.00 0.00 72 1007.3
20260505234516 27 203 3.2 11.3 0.00 0.00 0.00 72 1006.9
20260505234016 27 158 4.8 12.9 0.00 0.00 0.00 72 1007.0
20260505233516 27 180 6.4 16.1 0.00 0.00 0.00 71 1006.9
20260505233036 27 203 8.0 19.3 0.00 0.00 0.00 71 1007.0
20260505232516 27 203 4.8 16.1 0.00 0.00 0.00 71 1006.9
20260505232016 27 158 6.4 16.1 0.00 0.00 0.00 71 1006.8
20260505231556 28 180 6.4 16.1 0.00 0.00 0.00 70 1006.8
20260505231016 28 180 6.4 16.1 0.00 0.00 0.00 71 1006.7
20260505230516 28 203 4.8 11.3 0.00 0.00 0.00 70 1006.7
20260505230016 27 203 6.4 16.1 0.00 0.00 0.00 70 1006.7
20260505225516 28 180 8.0 19.3 0.00 0.00 0.00 69 1006.6
20260505225016 28 180 6.4 20.9 0.00 0.00 0.00 69 1006.7
20260505224516 28 135 4.8 12.9 0.00 0.00 0.00 70 1006.7
20260505224036 28 158 6.4 19.3 0.00 0.00 0.00 69 1006.7
20260505223516 28 203 6.4 11.3 0.00 0.00 0.00 69 1006.6
20260505223016 28 203 6.4 16.1 0.00 0.00 0.00 69 1006.7
20260505222517 28 203 6.4 16.1 0.00 0.00 0.00 69 1006.7
20260505222016 28 158 8.0 20.9 0.00 0.00 0.00 69 1006.5
20260505221616 28 225 9.7 16.1 0.00 0.00 0.00 68 1006.6
20260505221016 28 203 9.7 19.3 0.00 0.00 0.00 68 1006.7
20260505220516 28 203 8.0 20.9 0.00 0.00 0.00 67 1006.7
20260505220016 28 158 6.4 17.7 0.00 0.00 0.00 69 1006.7
20260505215516 28 225 8.0 29.0 0.00 0.00 0.00 68 1006.8
20260505215016 28 203 8.0 20.9 0.00 0.00 0.00 68 1006.9
20260505214516 28 180 8.0 19.3 0.00 0.00 0.00 68 1006.9
20260505214036 28 158 4.8 17.7 0.00 0.00 0.00 70 1007.0
20260505213516 28 180 4.8 14.5 0.00 0.00 0.00 69 1007.1
20260505213016 28 203 6.4 16.1 0.00 0.00 0.00 68 1007.2
20260505212516 28 203 9.7 20.9 0.00 0.00 0.00 68 1007.1
20260505212016 28 135 8.0 24.1 0.00 0.00 0.00 67 1007.1
20260505211516 29 135 6.4 14.5 0.00 0.00 0.00 67 1007.3
20260505211016 28 180 6.4 19.3 0.00 0.00 0.00 69 1007.5
20260505210516 28 180 9.7 22.5 0.00 0.00 0.00 68 1007.5
20260505210036 28 158 8.0 22.5 0.00 0.00 0.00 68 1007.4
20260505205516 28 203 8.0 22.5 0.00 0.00 0.00 68 1007.4
20260505205015 29 158 9.7 22.5 0.00 0.00 0.00 69 1007.5
20260505204536 28 203 6.4 14.5 0.00 0.00 0.00 68 1007.5
20260505204016 28 158 9.7 19.3 0.00 0.00 0.00 67 1007.6
20260505203516 28 180 11.3 24.1 0.00 0.00 0.00 68 1007.7
20260505203016 28 158 9.7 24.1 0.00 0.00 0.00 67 1007.7
20260505202516 28 180 9.7 19.3 0.00 0.00 0.00 68 1007.8
20260505202016 28 203 9.7 24.1 0.00 0.00 0.00 69 1007.9
20260505201516 28 203 9.7 20.9 0.00 0.00 0.00 69 1008.0
20260505201015 28 203 9.7 24.1 0.00 0.00 0.00 69 1008.0
20260505200516 28 180 6.4 19.3 0.00 0.00 0.00 69 1008.1
20260505200016 28 180 8.0 17.7 0.00 0.00 0.00 68 1008.1
20260505195515 28 203 8.0 20.9 0.00 0.00 0.00 69 1008.0
20260505195016 29 180 9.7 24.1 0.00 0.00 0.00 66 1008.2
20260505194516 28 180 9.7 22.5 0.00 0.00 0.00 69 1008.3
20260505194015 28 158 6.4 20.9 0.00 0.00 0.00 69 1008.4
20260505193516 28 225 11.3 19.3 0.00 0.00 0.00 68 1008.5
20260505193036 28 158 6.4 20.9 0.00 0.00 0.00 70 1008.7
20260505192516 28 203 6.4 17.7 0.00 0.00 0.00 70 1008.5
20260505192036 28 158 8.0 20.9 0.00 0.00 0.00 68 1008.6
20260505191516 28 203 6.4 16.1 0.00 0.00 0.00 70 1008.7
20260505191036 28 203 8.0 19.3 0.00 0.00 0.00 70 1008.8
20260505190536 27 180 9.7 19.3 0.00 0.00 0.00 70 1008.9
20260505190016 27 248 4.8 11.3 0.00 0.00 0.00 73 1008.8
20260505185516 27 225 8.0 17.7 0.00 0.00 0.00 71 1008.8
20260505185015 28 225 6.4 17.7 0.00 0.00 0.00 70 1008.9
20260505184535 28 225 9.7 20.9 0.00 0.00 0.00 70 1009.1
20260505184016 27 158 8.0 20.9 0.00 0.00 0.00 70 1009.2
20260505183515 26 225 6.4 20.9 0.00 0.00 0.00 73 1009.3
20260505183015 27 248 6.4 16.1 0.00 0.00 0.00 72 1009.5
20260505182515 27 203 11.3 25.7 0.00 0.00 0.00 70 1009.5
20260505182015 27 180 8.0 20.9 0.00 0.00 0.00 73 1009.4
20260505181515 27 203 8.0 20.9 0.00 0.00 0.00 75 1009.5
20260505181016 26 225 9.7 24.1 0.00 0.00 0.00 74 1009.6
20260505180516 26 225 6.4 17.7 0.00 0.00 0.00 76 1009.5